www.pogodaiklimat.ru

Погода и климат >> Архив погоды >> Азербайджан >> Мараза


ПОГОДА в Маразе

  • Прогноз погоды в Маразе
  • Монитор погоды в Маразе

АРХИВ ПОГОДЫ в Маразе

Время (UTC), дата Ветер
(напр.,м/с)
 
Видим.   Явления Облачность Т
(С)
Тd
(С)
f
(%)
Тe
(С)
Тes
(С)
Комфортность P
(гПа)
Po
(гПа)
Тmin
(С)
Tmax
(С)
R
(мм)
R24
(мм)
S
(см)
03 13.08 З 2 50 км 8/8 600 м
[Sc]
+17.9 +14.9 83 +18 +19 1018.4 933.2
06 13.08 З 3 50 км 6/3 600 м
[Cu med, cong Ac und]
+23.3 +9.5 41 +25 +29 комфорт 1016.4 932.7 +15.0
09 13.08 Ю 2 50 км 6/6 600 м
[Cu med, cong]
+26.6 +7.8 30 +26 +34 жарко 1015.9 933.1
12 13.08 В 4 50 км 8/8 600 м
[Cu med, cong]
+25.1 +8.6 35 +26 +27 жарко 1016.0 932.8
15 13.08 В 2 50 км 8/8 600 м
[Cu med, cong]
+22.9 +11.8 50 +25 +25 комфорт 1015.8 922.2
18 13.08 В 1 10 км ясно +18.3 +13.3 73 +20 +20 1017.6 932.6 +27.7
21 13.08 штиль 0 10 км 3/0
[Ac und]
+17.4 +10.3 63 +17 +17 1018.3 932.9
00 14.08 штиль 0 10 км ясно +13.5 +8.9 74 +13 +13 1020.0 933.3
03 14.08 З 1 50 км ясно +14.6 +10.6 77 +15 +16 1018.9 932.6
06 14.08 З 3 50 км ясно +22.7 +10.7 47 +25 +34 комфорт 1017.4 933.5 +12.8
09 14.08 ЮЗ 4 50 км ясно +25.8 +11.4 41 +27 +39 жарко 1015.2 932.4
12 14.08 Ю 4 50 км 4/4 600 м
[Cu med, cong]
+26.3 +11.4 39 +27 +31 жарко 1014.4 931.8
15 14.08 Ю 4 50 км 6/6 600 м
[Cu med, cong]
+23.5 +16.1 63 +27 +27 душно 1014.2 931.0
18 14.08 штиль 0 10 км 3/0
[Ac und]
+19.4 +15.7 79 +21 +21 комфорт 1016.1 931.6 +27.4
21 14.08 штиль 0 10 км ясно +16.2 +12.9 81 +16 +16 1016.8 931.3
00 15.08 штиль 0 10 км ясно +14.8 +11.7 82 +15 +15 1016.6 930.6
03 15.08 штиль 0 50 км 3/3 600 м
[Cu med, cong]
+16.1 +13.8 86 +16 +17 1016.3 930.8
06 15.08 ЮЗ 2 50 км 4/4 600 м
[Cu med, cong]
+22.3 +15.3 65 +26 +33 жарко 1014.7 931.1 +17.1
09 15.08 Ю 1 50 км 3/3 600 м
[Cu med, cong]
+26.6 +15.1 49 +29 +44 жарко 1012.6 930.3
12 15.08 Ю 3 50 км 8/8 600 м
[Cu med, cong]
+26.9 +16.8 54 +31 +32 душно 1011.1 929.1
15 15.08 Ю 3 50 км 8/8 600 м
[Cu med, cong]
+23.8 +17.0 66 +28 +28 душно 1012.2 929.3
18 15.08 штиль 0 10 км 4/0
[Ac und]
+19.9 +15.3 75 +22 +22 комфорт 1014.3 930.1 +27.8
21 15.08 З 2 10 км ясно +16.5 +12.9 79 +17 +17 1014.6 929.4
00 16.08 З 2 10 км ясно +15.4 +12.3 82 +15 +15 1014.6 929.0
03 16.08 З 2 50 км ясно +16.7 +10.7 68 +17 +18 1014.0 928.8
06 16.08 ЮЗ 4 50 км 8/8 600 м
[Cu med, cong]
+22.0 +16.2 70 +26 +28 душно 1011.8 928.4 +14.9
09 16.08 Ю 3 50 км 4/4 600 м
[Cu med, cong]
+25.6 +17.5 61 +30 +38 душно 1009.9 927.6
12 16.08 ЮВ 5 50 км 3/3 600 м
[Cu med, cong]
+27.9 +17.4 53 +32 +35 душно 1008.2 926.6
15 16.08 Ю 2 50 км ясно +25.4 +11.1 41 +27 +27 жарко 1008.4 926.0
18 16.08 штиль 0 10 км ясно +18.3 +11.3 64 +19 +19 1010.9 926.4 +28.7
21 16.08 штиль 0 10 км ясно +15.6 +8.8 64 +15 +15 1011.6 926.2
00 17.08 ЮВ 2 10 км ясно +13.8 +8.6 71 +13 +13 1011.8 925.8
03 17.08 штиль 0 50 км ясно +14.2 +7.6 64 +14 +15 1011.8 926.3
06 17.08 Ю 3 50 км ясно +26.7 +9.8 35 +27 +36 жарко 1007.9 925.8 +13.2
09 17.08 Ю 2 50 км ясно +30.1 +8.4 26 +29 +47 жарко 1006.9 925.7
12 17.08 В 3 50 км ясно +30.7 +8.4 25 +30 +37 жарко 1006.0 925.1
15 17.08 В 2 50 км ясно +27.1 +10.4 35 +28 +28 жарко 1007.8 925.8
18 17.08 С 1 10 км ясно +21.8 +9.3 45 +23 +23 комфорт 1010.3 926.7 +31.8
21 17.08 С 2 10 км ясно +21.3 +10.0 48 +23 +23 комфорт 1010.8 927.1
00 18.08 СВ 2 10 км ясно +22.1 +5.0 33 +22 +22 комфорт 1010.4 926.8
03 18.08 СВ 3 50 км ясно +23.2 +4.5 30 +23 +24 комфорт 1010.4 927.1
06 18.08 ЮВ 3 50 км ясно +29.1 +1.1 16 +27 +36 жарко 1010.2 928.4 +20.6
09 18.08 Ю 2 50 км ясно +31.8 +0.6 14 +29 +46 жарко 1009.0 928.0
12 18.08 В 2 50 км ясно +32.0 +4.5 18 +30 +38 жарко 1008.2 927.4
15 18.08 В 2 50 км ясно +27.8 +9.8 32 +28 +28 жарко 1009.9 927.9
18 18.08 штиль 0 10 км ясно +20.3 +7.3 43 +21 +21 комфорт 1012.6 928.4 +32.9
21 18.08 штиль 0 10 км ясно +16.7 +7.1 53 +17 +17 1014.2 928.7
00 19.08 штиль 0 10 км ясно +15.4 +6.1 54 +15 +15 1014.7 928.9
03 19.08 штиль 0 50 км ясно +15.9 +7.0 55 +16 +17 1015.7 930.0
06 19.08 В 1 50 км ясно +29.6 +4.5 20 +28 +40 жарко 1012.0 930.2 +14.8
09 19.08 Ю 3 50 км ясно +32.3 +4.5 17 +30 +44 жарко 1011.8 930.7
12 19.08 ЮВ 2 50 км ясно +32.8 +5.1 18 +31 +39 жарко 1011.8 930.9
15 19.08 В 3 50 км ясно +29.3 +1.1 16 +27 +27 жарко 1014.0 931.9
18 19.08 С 1 10 км ясно +22.6 +4.6 31 +23 +23 комфорт 1016.3 932.4 +33.9
21 19.08 штиль 0 10 км ясно +21.7 +6.1 36 +22 +22 комфорт 1016.2 932.0
00 20.08 СВ 4 10 км ясно +23.0 +3.8 29 +23 +23 комфорт 1016.6 932.7

 

Местоположение метеостанции Мараза (Азербайджан): широта 40.53 долгота 48.93 высота над уровнем моря 755 м.

В архиве по умолчанию представлена погода в Маразе за последнюю неделю. Архивные данные за месяц целиком и за предыдущие месяцы, начиная с января 2011 года, Вы можете получить, выбрав интересующий диапазон дат из раскрывающегося списка и нажав кнопку "Ввод!".


*Определитесь, кто Вы:
робот инопланетянин человек

Внимание! Время в таблицах - всемирное. Для получения местного времени необходимо прибавить поправку, которая равна 4 ч.

Смотрите также архив погоды в соседних городах и на ближайших метеорологических станциях:

Погода в Шемахе (Азербайджан) (28 км)
Погода в Курдамире (Азербайджан) (68 км)
Погода в Баку (дендропарк) (Азербайджан) (73 км)
Погода в Алате (Азербайджан) (74 км)
Погода в Баку (Азербайджан) (97 км)
Погода в Губе (Азербайджан) (100 км)
Погода в Геокчае (Азербайджан) (101 км)
Погода в Габале (Азербайджан) (102 км)
Погода в Нефтечале (Азербайджан) (129 км)
Погода в Парсабаде (Иран) (130 км)

Пояснения к столбцам:

Ветер - указаны скорость ветра в м/с - средняя за 10 мин, порывы в срок и между сроками (в фигурных скобках) и направление, откуда дует ветер: С - северный, СВ - северо-восточный, В - восточный, ЮВ - юго-восточный, Ю - южный, ЮЗ - юго-западный, З - западный, СЗ - северо-западный.
Видимость - горизонтальная дальность видимости в метрах или километрах. При видимости от 1 до 10 км при отсутствии осадков обычно наблюдается дымка, при ухудшении видимости до 1 км и менее - туман. В сухую погоду видимость может ухудшаться дымом, пылью или мглою.
Явления - указаны атмосферные явления, наблюдавшиеся в срок или в последний час перед сроком; фигурными скобками обозначены явления, наблюдавшиеся между сроками (за 1-3 часа до срока); квадратными скобками обозначены град или гололедные отложения с указанием их диаметра в мм.
Облачность - указаны через наклонную черту общая и нижняя облачность в баллах и высота нижней границы облаков в метрах; квадратными скобками обозначены формы облаков: Ci - перистые, Cs - перисто-слоистые, Cc - перисто-кучевые, Ac - высококучевые, As - высокослоистые, Sc - слоисто-кучевые, Ns - слоисто-дождевые, Cu - кучевые, Cb - кучево-дождевые. Подробнее классификацию облаков см. в Атласе облаков (PDF).
T - Температура воздуха - температура, измеренная на высоте 2 м над землей.
Td - Температура точки росы - температура, при понижении до которой содержащийся в воздухе водяной пар достигнет насыщения.
f - Относительная влажность воздуха - влажноcть воздуха, измеренная на высоте 2 м над землей.
Te - Эффективная температура - температура, которую ощущает одетый по сезону человек в тени. Характеристика душности погоды. При расчете учитывается влияние влажности воздуха и скорости ветра на теплоощущения человека.
Tes - Эффективная температура на солнце - температура, которую ощущает человек, с поправкой на солнечный нагрев. Характеристика знойности погоды. Зависит от высоты солнца над горизонтом, облачности и скорости ветра. Ночью, в пасмурную погоду, а также при ветре 12 м/с и более поправка равна нулю.
P - Атмосферное давление - приведенное к уровню моря атмосферное давление.
Po - Атмосферное давление - измеренное на уровне метеостанции атмосферное давление.
Tmin - Минимальная температура - минимум температуры воздуха на высоте 2 м над землей.
Tmax - Максимальная температура - максимум температуры воздуха на высоте 2 м над землей.
R - Количество осадков - Количество выпавших осадков за период времени, мм. При наведении курсора мыши на число - период времени, за который выпало указанное количество осадков.
R24 - Количество осадков - Количество выпавших осадков за 24 часа, мм.
S - Снежный покров - Высота снежного покрова, см. При наведении курсора мыши на число - состояние снежного покрова и степень покрытия местности в баллах.